This is the latest recevied weather packets stored in our database for station/object KC0OOO-WX. If no packets are shown the sender has not sent any weather packets the latest 10 day(s).
| Time | Temp. | Humidity | Pressure | Rain* | Wind** | Luminosity | Snow |
|---|---|---|---|---|---|---|---|
| 1777149352 | 17.78° C | 20% | 1013.5 hPa | 0 mm | - | - | - |
| 1777148752 | 17.78° C | 20% | 1013.5 hPa | 0 mm | - | - | - |
| 1777148151 | 17.22° C | 18% | 1013.5 hPa | 0 mm | - | - | - |
| 1777147552 | 17.22° C | 19% | 1013.9 hPa | 0 mm | - | - | - |
| 1777146922 | 17.78° C | 18% | 1013.9 hPa | 0 mm | - | - | - |
| 1777146322 | 17.22° C | 20% | 1013.9 hPa | 0 mm | - | - | - |
| 1777145722 | 16.67° C | 19% | 1013.9 hPa | 0 mm | - | - | - |
| 1777145121 | 16.11° C | 19% | 1013.9 hPa | 0 mm | - | - | - |
| 1777144491 | 15° C | 22% | 1013.9 hPa | 0 mm | - | - | - |
| 1777143891 | 15° C | 21% | 1014.2 hPa | 0 mm | - | - | - |
| 1777143291 | 16.11° C | 20% | 1014.2 hPa | 0 mm | - | - | - |
| 1777142691 | 15.56° C | 22% | 1014.2 hPa | 0 mm | - | - | - |
| 1777142091 | 15° C | 22% | 1014.2 hPa | 0 mm | - | - | - |
| 1777141491 | 15.56° C | 24% | 1014.6 hPa | 0 mm | - | - | - |
| 1777140861 | 16.11° C | 21% | 1014.6 hPa | 0 mm | - | - | - |
| 1777140261 | 15.56° C | 21% | 1014.6 hPa | 0 mm | - | - | - |
| 1777139661 | 15.56° C | 21% | 1014.6 hPa | 0 mm | - | - | - |
| 1777139061 | 16.11° C | 21% | 1014.9 hPa | 0 mm | - | - | - |
| 1777138461 | 15.56° C | 22% | 1014.9 hPa | 0 mm | - | - | - |
| 1777137861 | 14.44° C | 24% | 1014.6 hPa | 0 mm | - | - | - |
| 1777137261 | 13.89° C | 25% | 1014.6 hPa | 0 mm | - | - | - |
| 1777136661 | 13.89° C | 24% | 1014.6 hPa | 0 mm | - | - | - |
| 1777136061 | 13.89° C | 25% | 1014.6 hPa | 0 mm | - | - | - |
| 1777135431 | 13.33° C | 26% | 1014.9 hPa | 0 mm | - | - | - |
| 1777134831 | 13.33° C | 26% | 1014.9 hPa | 0 mm | - | - | - |
* Rain latest hour (hover to see other rain measurements)
** Current wind speed in m/s (hover to see current wind gust speed)